Weather History for Gillette, WY

Change the Weather History Date:

Sunday, January 27, 2013

  Actual Average Record
Temperature  
Mean Temperature 32 °F 26 °F  
Max Temperature 36 °F 37 °F 14 °F (2014)
Min Temperature 28 °F 15 °F -6 °F (2014)
Degree Days  
Heating Degree Days 33 39  
Month to date heating degree days 1054 1058  
Since 1 July heating degree days 3894 4199  
Cooling Degree Days 0 0  
Month to date cooling degree days 0 0  
Year to date cooling degree days 0 0  
Moisture  
Dew Point 29 °F    
Average Humidity 85    
Maximum Humidity 100    
Minimum Humidity 70    
Precipitation  
Precipitation T in 0.01 in - ()
Month to date precipitation 0.15 0.32  
Year to date precipitation 0.15 0.32  
Sea Level Pressure  
Sea Level Pressure 29.73 in    
Wind  
Wind Speed 10 mph (NNW)    
Max Wind Speed 20 mph    
Max Gust Speed 23 mph    
Visibility 7 miles    
Events Fog    
T = Trace of Precipitation, MM = Missing Value Source: NWS Daily Summary

Daily Weather History Graph

Daily Weather History Graph

Search for Another Location

Airport:

Trip Planner

Search our weather history database for the weather conditions in past years. The results will help you decide how hot, cold, wet, or windy it might be!

Date:

Astronomy

Jan. 27, 2013 Rise Set
Actual Time 7:25 AM MST 5:05 PM MST
Civil Twilight 6:54 AM MST 5:36 PM MST
Nautical Twilight 6:18 AM MST 6:11 PM MST
Astronomical Twilight 5:44 AM MST 6:45 PM MST
Moon 6:06 PM MST (1/27) 7:16 AM MST (1/27)
Length of Visible Light 10h 42m
Length of Day
9h 39m
Full, 100% of the Moon is Illuminated
Jan 27
Full
Feb 3
Last Quarter
Feb 10
New
Feb 17
First Quarter
Feb 25
Full

Hourly Weather History & Observations

Time (MST) Temp. Windchill Dew Point Humidity Pressure Visibility Wind Dir Wind Speed Gust Speed Precip Events Conditions
12:53 AM 35.1 °F 26.4 °F 26.1 °F 70% 29.67 in 10.0 mi South 12.7 mph - N/A   Clear
1:53 AM 36.0 °F 27.1 °F 26.1 °F 67% 29.65 in 10.0 mi South 13.8 mph - N/A   Clear
2:53 AM 35.1 °F 26.4 °F 26.1 °F 70% 29.63 in 10.0 mi South 12.7 mph - N/A   Clear
3:53 AM 35.1 °F 27.9 °F 26.1 °F 70% 29.62 in 10.0 mi South 9.2 mph - N/A   Clear
4:53 AM 34.0 °F - 27.0 °F 75% 29.64 in 10.0 mi Calm Calm - N/A   Clear
5:53 AM 35.1 °F 30.1 °F 27.0 °F 72% 29.66 in 10.0 mi SE 5.8 mph - N/A   Clear
6:53 AM 30.9 °F 22.8 °F 26.1 °F 82% 29.72 in 10.0 mi WNW 9.2 mph - N/A   Clear
7:53 AM 32.0 °F 23.6 °F 26.1 °F 79% 29.74 in 10.0 mi NW 10.4 mph - N/A   Clear
8:53 AM 33.1 °F 25.5 °F 26.1 °F 75% 29.74 in 10.0 mi NW 9.2 mph - N/A   Clear
9:53 AM 35.1 °F 25.2 °F 28.0 °F 76% 29.75 in 10.0 mi NNW 16.1 mph 20.7 mph N/A   Partly Cloudy
10:06 AM 32.0 °F 20.5 °F 28.4 °F 87% 29.71 in 10.0 mi NW 18.4 mph - N/A   Mostly Cloudy
10:20 AM 32.0 °F 21.6 °F 28.4 °F 87% 29.73 in 10.0 mi NW 15.0 mph - N/A   Overcast
10:53 AM 32.0 °F 21.6 °F 30.0 °F 92% 29.78 in 10.0 mi NNW 15.0 mph - N/A   Overcast
11:53 AM 34.0 °F 24.6 °F 30.0 °F 85% 29.77 in 10.0 mi NW 13.8 mph - N/A   Overcast
12:53 PM 34.0 °F 25.0 °F 30.9 °F 89% 29.76 in 10.0 mi WNW 12.7 mph - N/A   Overcast
1:53 PM 33.1 °F 23.9 °F 32.0 °F 96% 29.75 in 6.0 mi NW 12.7 mph - N/A   Overcast
2:23 PM 33.8 °F 24.8 °F 32.0 °F 93% 29.70 in 2.5 mi NW 12.7 mph - N/A   Overcast
2:42 PM 33.8 °F 24.8 °F 32.0 °F 93% 29.71 in 4.0 mi NW 12.7 mph - N/A   Overcast
2:53 PM 33.1 °F 24.9 °F 32.0 °F 96% 29.77 in 5.0 mi NW 10.4 mph - N/A   Overcast
3:53 PM 33.1 °F 26.1 °F 32.0 °F 96% 29.77 in 5.0 mi North 8.1 mph - N/A   Overcast
4:14 PM 32.0 °F 24.2 °F 32.0 °F 100% 29.71 in 5.0 mi North 9.2 mph - N/A   Overcast
4:26 PM 32.0 °F 24.2 °F 32.0 °F 100% 29.71 in 1.8 mi North 9.2 mph - N/A   Overcast
4:41 PM 32.0 °F 24.8 °F 32.0 °F 100% 29.71 in 0.5 mi North 8.1 mph - N/A Fog Fog
4:53 PM 32.0 °F 24.2 °F 32.0 °F 100% 29.77 in 0.5 mi North 9.2 mph - N/A Fog Fog
5:01 PM 32.0 °F 24.2 °F 32.0 °F 100% 29.71 in 0.8 mi North 9.2 mph - N/A   Mist
5:26 PM 30.2 °F 22.6 °F 30.2 °F 100% 29.71 in 2.5 mi North 8.1 mph - N/A   Overcast
5:33 PM 30.2 °F 23.4 °F 30.2 °F 100% 29.72 in 5.0 mi North 6.9 mph - N/A   Overcast
5:53 PM 30.9 °F 24.3 °F 30.9 °F 100% 29.77 in 4.0 mi NNE 6.9 mph - N/A   Overcast
6:53 PM 30.9 °F 22.8 °F 30.9 °F 100% 29.79 in 4.0 mi NNE 9.2 mph - N/A   Overcast
7:37 PM 30.2 °F 22.6 °F 28.4 °F 93% 29.72 in 10.0 mi ENE 8.1 mph - N/A   Overcast
7:46 PM 30.2 °F 22.6 °F 28.4 °F 93% 29.72 in 10.0 mi NE 8.1 mph - N/A   Overcast
7:53 PM 30.0 °F 23.2 °F 28.0 °F 92% 29.79 in 10.0 mi NE 6.9 mph - N/A   Overcast
8:53 PM 30.0 °F 22.4 °F 27.0 °F 88% 29.78 in 10.0 mi NE 8.1 mph - 0.00 in   Overcast
9:53 PM 28.9 °F 19.2 °F 28.0 °F 96% 29.80 in 5.0 mi NNW 11.5 mph - 0.00 in   Overcast
10:03 PM 28.4 °F 19.1 °F 28.4 °F 100% 29.74 in 6.0 mi NNW 10.4 mph - N/A   Overcast
10:19 PM 28.4 °F 19.1 °F 28.4 °F 100% 29.74 in 8.0 mi North 10.4 mph - N/A   Overcast
10:27 PM 28.4 °F 19.1 °F 26.6 °F 93% 29.73 in 6.0 mi North 10.4 mph - N/A   Overcast
10:42 PM 28.4 °F 18.5 °F 26.6 °F 93% 29.74 in 5.0 mi North 11.5 mph - N/A   Overcast
10:53 PM 28.0 °F 20.0 °F 27.0 °F 96% 29.82 in 7.0 mi North 8.1 mph - N/A   Overcast
11:32 PM 28.4 °F 22.2 °F 26.6 °F 93% 29.74 in 10.0 mi North 5.8 mph - N/A   Overcast
11:53 PM 28.0 °F 20.0 °F 27.0 °F 96% 29.81 in 10.0 mi NNE 8.1 mph - N/A   Overcast